Regional Weather Roundup
Issued by NWS

Home | Current Version | Previous Version | Graphics & Text | Print | Product List | Glossary On
Versions: 1 2 3 4 5 6 7 8 9 10 11 12 13 14 15 16 17 18 19 20 21 22 23 24 25 26 27
000
ASUS43 KDMX 221707
RWRIA

WEATHER ROUNDUP FOR IOWA
NATIONAL WEATHER SERVICE DES MOINES IA
1200 PM CDT TUE APR 22 2014

NOTE: "FAIR" INDICATES FEW OR NO CLOUDS BELOW 12,000 FEET WITH NO
SIGNIFICANT WEATHER AND/OR OBSTRUCTIONS TO VISIBILITY.

* - THESE STATIONS ARE NOT NWS STATIONS...THUS NOT UNDER NWS
QUALITY CONTROL.  THEY ALSO DO NOT REPORT WEATHER SUCH
AS PRECIPITATION OR FOG.

IAZ001>003-012>014-020>022-031>034-043>046-221800-
   NORTHWEST IOWA

CITY           SKY/WX    TMP DP  RH WIND       PRES   REMARKS
CARROLL *      SUNNY     57  32  38 N8G16     30.15F
CHEROKEE *     SUNNY     61  34  36 NE3       30.14F
DENISON *      SUNNY     57  32  38 NE9G16    30.14F
LE MARS *      SUNNY     59  32  36 E7        30.14F
ORANGE CITY *  SUNNY     59  28  31 E5        30.13F
SHELDON *      SUNNY     57  30  35 E6        30.12F
SIOUX CITY     SUNNY     61  32  33 SE12      30.14F
SPENCER        SUNNY     58  32  37 VRB7      30.14F
STORM LAKE *   SUNNY     55  32  41 E10       30.15F
$$

IAZ055>058-069>071-079>083-090>094-221800-
   SOUTHWEST IOWA

CITY           SKY/WX    TMP DP  RH WIND       PRES   REMARKS
ATLANTIC *     SUNNY     57  34  41 E10       30.15F
AUDUBON *      SUNNY     61  27  27 NE9       30.16F
CLARINDA *     SUNNY     61  30  31 VRB3G13   30.17F
COUNCIL BLFS * SUNNY     59  34  38 VRB7G14   30.14F
CRESTON *      SUNNY     57  30  35 NE13      30.15R
HARLAN  *      SUNNY     57  34  41 E8G14     30.19S
LAMONI         SUNNY     58  34  40 N10       30.14S
RED OAK *      SUNNY     59  34  38 E6G14     30.15F
SHENANDOAH *   SUNNY     61  34  36 E10       30.16F
$$

IAZ047>049-059>061-072>074-084-221800-
   CENTRAL IOWA

CITY           SKY/WX    TMP DP  RH WIND       PRES   REMARKS
AMES           SUNNY     58  30  34 NE20G32   30.14S
ANKENY *       SUNNY     59  32  36 N14       30.14R
CHARITON *       N/A     57  34  41 N13G20    30.13S
DES MOINES     MOSUNNY   60  31  33 NE15      30.14F
GRINNELL*      SUNNY     57  28  33 N17       30.12F
KNOXVILLE *    SUNNY     57  30  35 N9G17     30.12F
MARSHALLTOWN   SUNNY     56  32  40 N17G25    30.12S
NEWTON *       SUNNY     57  28  33 N14G24    30.13F
PELLA *        SUNNY     57  32  38 N8G16     30.13F
PERRY *          N/A     59  27  29 N13G21    30.15F
$$

IAZ004>006-015-016-023>025-035-036-221800-
   NORTH CENTRAL IOWA

CITY           SKY/WX    TMP DP  RH WIND       PRES   REMARKS
ALGONA *       SUNNY     55  34  44 N14       30.15F
CLARION *      SUNNY     54  36  50 N10G18    30.14F
ESTHERVILLE    SUNNY     56  34  43 N15       30.14F
FORT DODGE *   SUNNY     55  36  47 N13       30.16F
MASON CITY     SUNNY     55  34  45 N17G24    30.14S
FOREST CITY *  SUNNY     55  34  44 N13G20    30.13S
IOWA FALLS *     N/A     55  34  44 N16       30.14S
$$

IAZ007>011-017>019-026>030-037>042-050>054-066-221800-
   NORTHEAST IOWA

CITY           SKY/WX    TMP DP  RH WIND       PRES   REMARKS
CEDAR RAPIDS   SUNNY     54  33  45 N15G22    30.09R
CHARLES CITY * SUNNY     52  36  54 N21G26    30.12F
CLINTON *      SUNNY     55  28  35 NW14G22   30.07F
DECORAH *      SUNNY     50  28  43 NW18G26   30.07F
DUBUQUE        SUNNY     52  31  44 NW14G24   30.06R
MONTICELLO *   SUNNY     55  32  41 NW14G21   30.07F
OELWEIN *      SUNNY    N/A N/A N/A N15G26    30.10F
WATERLOO       SUNNY     54  32  43 N13G22    30.11S
$$

IAZ064-065-067-068-078-221800-
   EAST CENTRAL IOWA

CITY           SKY/WX    TMP DP  RH WIND       PRES   REMARKS
DAVENPORT      SUNNY     55  34  45 NW15G23   30.07R
IOWA CITY      SUNNY     55  33  43 NW16G23   30.11R
MT. PLEASANT * SUNNY     57  30  35 N14G20    30.09F
MUSCATINE *    SUNNY     55  32  41 N14G23    30.09R
QUAD CITIES    SUNNY     56  34  43 NW12      30.05F
$$

IAZ062-063-075>077-085>089-095>099-221800-
   SOUTHEAST IOWA

CITY           SKY/WX    TMP DP  RH WIND       PRES   REMARKS
BURLINGTON     SUNNY     58  32  37 N13G18    30.07S
FAIRFIELD *    SUNNY     55  34  44 NW15      30.11S
FORT MADISON * SUNNY     57  30  35 N13G24    30.09S
KEOKUK *       SUNNY     57  34  41 N10G18    30.08S
OSKALOOSA *      N/A     57  34  41 N12G20    30.12F
CENTERVILLE *  SUNNY     55  34  44 N12       30.14S
OTTUMWA        SUNNY     56  34  43 N14G21    30.12F
WASHINGTON *   SUNNY     55  32  41 N15G21    30.10F
$$

ABBREVIATIONS USED IN REMARKS
   TC - TEMPERATURES IN CELSIUS
  WCI - WIND CHILL INDEX
   HX - HEAT INDEX
  VSB - VISIBILITY
$$




USA.gov is the U.S. government's official web portal to all federal, state and local government web resources and services.